• în Republica Moldova
  • Lista ţărilor
  • Pe 7 zile
  • Temperatura apei
  • Hartă satelitară
  • Meteo pe hartă
  • Widget-uri
  • user-avatar
    Intrare

    Meteo pe oră la Shusha

    Astăzi, 28 Februarie, Marţi

    Timp Temperatura Precipitaţii Vânt Presiune Umiditate
    00:00 -1°C° 0 mm 1 m/s 660 mmHg 86%
    01:00 -1°C° 0 mm 1 m/s 660 mmHg 85%
    02:00 -1°C° 0 mm 1 m/s 660 mmHg 85%
    03:00 -1°C° 0 mm 1 m/s 660 mmHg 84%
    04:00 -1°C° 0 mm 1 m/s 660 mmHg 84%
    05:00 -1°C° 0 mm 1 m/s 660 mmHg 84%
    06:00 -1°C° 0 mm 1 m/s 660 mmHg 84%
    07:00 +1°C° 0 mm 1 m/s 661 mmHg 78%
    08:00 +3°C° 0 mm 1 m/s 662 mmHg 71%
    09:00 +5°C° 0 mm 0 m/s 663 mmHg 63%
    10:00 +7°C° 0 mm 1 m/s 663 mmHg 61%
    11:00 +8°C° 0 mm 1 m/s 663 mmHg 59%
    12:00 +8°C° 0 mm 2 m/s 663 mmHg 56%
    13:00 +8°C° 0 mm 2 m/s 663 mmHg 57%
    14:00 +8°C° 0 mm 2 m/s 663 mmHg 58%
    15:00 +8°C° 0 mm 2 m/s 663 mmHg 58%
    16:00 +7°C° 0 mm 1 m/s 663 mmHg 66%
    17:00 +5°C° 0 mm 1 m/s 662 mmHg 73%
    18:00 +3°C° 0 mm 1 m/s 662 mmHg 80%
    19:00 +3°C° 0 mm 1 m/s 662 mmHg 82%
    20:00 +2°C° 0 mm 1 m/s 662 mmHg 84%
    21:00 +2°C° 0 mm 1 m/s 662 mmHg 86%
    22:00 +2°C° 0 mm 1 m/s 662 mmHg 86%
    23:00 +2°C° 0 mm 1 m/s 663 mmHg 86%

    Mâine, 1 Martie, Miercuri

    Timp Temperatura Precipitaţii Vânt Presiune Umiditate
    00:00 +1°C° 0 mm 1 m/s 663 mmHg 86%
    01:00 +1°C° 0 mm 1 m/s 663 mmHg 86%
    02:00 +1°C° 0 mm 1 m/s 662 mmHg 85%
    03:00 +1°C° 0 mm 1 m/s 662 mmHg 85%
    04:00 0°C° 0 mm 1 m/s 662 mmHg 84%
    05:00 0°C° 0 mm 1 m/s 662 mmHg 83%
    06:00 0°C° 0 mm 1 m/s 662 mmHg 83%
    07:00 +2°C° 0 mm 1 m/s 663 mmHg 76%
    08:00 +4°C° 0 mm 1 m/s 664 mmHg 70%
    09:00 +5°C° 0 mm 0 m/s 664 mmHg 63%
    10:00 +7°C° 0 mm 1 m/s 664 mmHg 60%
    11:00 +9°C° 0 mm 1 m/s 664 mmHg 58%
    12:00 +9°C° 0 mm 2 m/s 664 mmHg 55%
    13:00 +9°C° 0 mm 2 m/s 664 mmHg 56%
    14:00 +9°C° 0 mm 2 m/s 663 mmHg 57%
    15:00 +10°C° 0 mm 2 m/s 663 mmHg 58%
    16:00 +8°C° 0 mm 1 m/s 662 mmHg 66%
    17:00 +6°C° 0 mm 1 m/s 661 mmHg 75%
    18:00 +4°C° 0 mm 1 m/s 661 mmHg 84%
    19:00 +4°C° 0 mm 1 m/s 661 mmHg 85%
    20:00 +3°C° 0 mm 1 m/s 661 mmHg 86%
    21:00 +3°C° 0 mm 1 m/s 661 mmHg 87%
    22:00 +3°C° 0 mm 1 m/s 661 mmHg 87%
    23:00 +2°C° 0 mm 1 m/s 660 mmHg 87%

    Poimâine, 2 Martie, Joi

    Timp Temperatura Precipitaţii Vânt Presiune Umiditate
    00:00 +2°C° 0 mm 1 m/s 660 mmHg 87%
    01:00 +2°C° 0 mm 1 m/s 660 mmHg 86%
    02:00 +2°C° 0 mm 1 m/s 660 mmHg 86%
    03:00 +2°C° 0 mm 1 m/s 659 mmHg 86%
    04:00 +2°C° 0 mm 1 m/s 659 mmHg 85%
    05:00 +2°C° 0 mm 1 m/s 659 mmHg 84%
    06:00 +1°C° 0 mm 1 m/s 659 mmHg 84%
    07:00 +3°C° 0 mm 1 m/s 659 mmHg 78%
    08:00 +5°C° 0 mm 1 m/s 660 mmHg 73%
    09:00 +7°C° 0 mm 1 m/s 660 mmHg 67%
    10:00 +8°C° 0 mm 1 m/s 660 mmHg 64%
    11:00 +9°C° 0 mm 1 m/s 660 mmHg 61%
    12:00 +9°C° 0 mm 2 m/s 660 mmHg 58%
    13:00 +9°C° 0 mm 2 m/s 659 mmHg 59%
    14:00 +9°C° 0 mm 2 m/s 659 mmHg 61%
    15:00 +9°C° 0 mm 2 m/s 659 mmHg 62%
    16:00 +9°C° 0 mm 1 m/s 658 mmHg 70%
    17:00 +7°C° 0 mm 1 m/s 658 mmHg 77%
    18:00 +6°C° 0 mm 1 m/s 658 mmHg 85%
    19:00 +4°C° 0,1 mm 0 m/s 658 mmHg 86%
    20:00 +4°C° 0,1 mm 0 m/s 658 mmHg 87%
    21:00 +4°C° 0,1 mm 0 m/s 658 mmHg 87%
    22:00 +3°C° 0,1 mm 0 m/s 658 mmHg 89%
    23:00 +3°C° 0,1 mm 0 m/s 657 mmHg 90%

    3 Martie, Vineri

    Timp Temperatura Precipitaţii Vânt Presiune Umiditate
    00:00 +2°C° 0,1 mm 0 m/s 657 mmHg 92%
    01:00 +2°C° 0 mm 0 m/s 657 mmHg 92%
    02:00 +2°C° 0 mm 0 m/s 656 mmHg 92%
    03:00 +1°C° 0 mm 0 m/s 656 mmHg 93%
    04:00 +1°C° 0 mm 0 m/s 656 mmHg 93%
    05:00 +1°C° 0 mm 0 m/s 656 mmHg 93%
    06:00 +1°C° 0 mm 0 m/s 656 mmHg 93%
    07:00 +3°C° 0 mm 0 m/s 657 mmHg 86%
    08:00 +4°C° 0 mm 0 m/s 658 mmHg 79%
    09:00 +6°C° 0 mm 0 m/s 658 mmHg 72%
    10:00 +8°C° 0 mm 1 m/s 658 mmHg 68%
    11:00 +9°C° 0 mm 1 m/s 658 mmHg 64%
    12:00 +10°C° 0 mm 1 m/s 658 mmHg 60%
    13:00 +10°C° 0 mm 1 m/s 658 mmHg 60%
    14:00 +11°C° 0 mm 1 m/s 658 mmHg 60%
    15:00 +11°C° 0 mm 1 m/s 658 mmHg 61%
    16:00 +9°C° 0 mm 1 m/s 657 mmHg 68%
    17:00 +8°C° 0 mm 1 m/s 657 mmHg 74%
    18:00 +6°C° 0 mm 1 m/s 657 mmHg 81%
    19:00 +6°C° 0,1 mm 1 m/s 657 mmHg 83%
    20:00 +4°C° 0,1 mm 0 m/s 657 mmHg 85%
    21:00 +4°C° 0,1 mm 0 m/s 658 mmHg 87%
    22:00 +3°C° 0 mm 0 m/s 658 mmHg 88%
    23:00 +3°C° 0 mm 0 m/s 657 mmHg 89%

    4 Martie, Sâmbătă

    Timp Temperatura Precipitaţii Vânt Presiune Umiditate
    00:00 +2°C° 0 mm 0 m/s 657 mmHg 90%
    01:00 +2°C° 0 mm 0 m/s 657 mmHg 90%
    02:00 +2°C° 0 mm 0 m/s 657 mmHg 90%
    03:00 +2°C° 0 mm 0 m/s 657 mmHg 91%
    04:00 +1°C° 0 mm 0 m/s 657 mmHg 91%
    05:00 +1°C° 0 mm 0 m/s 658 mmHg 91%
    06:00 +1°C° 0 mm 0 m/s 658 mmHg 91%
    07:00 +3°C° 0 mm 0 m/s 659 mmHg 85%
    08:00 +6°C° 0 mm 1 m/s 660 mmHg 78%
    09:00 +8°C° 0 mm 1 m/s 660 mmHg 71%
    10:00 +8°C° 0,1 mm 1 m/s 660 mmHg 68%
    11:00 +9°C° 0,1 mm 1 m/s 660 mmHg 65%
    12:00 +9°C° 0,1 mm 2 m/s 660 mmHg 63%
    13:00 +9°C° 0,1 mm 2 m/s 660 mmHg 63%
    14:00 +9°C° 0,1 mm 2 m/s 660 mmHg 64%
    15:00 +9°C° 0,1 mm 2 m/s 660 mmHg 65%
    16:00 +8°C° 0,2 mm 2 m/s 660 mmHg 70%
    17:00 +7°C° 0,2 mm 1 m/s 660 mmHg 76%
    18:00 +6°C° 0,2 mm 1 m/s 660 mmHg 81%
    19:00 +6°C° 0,2 mm 1 m/s 661 mmHg 82%
    20:00 +5°C° 0,2 mm 1 m/s 661 mmHg 83%
    21:00 +5°C° 0,2 mm 1 m/s 661 mmHg 84%
    22:00 +5°C° 0,1 mm 1 m/s 661 mmHg 84%
    23:00 +4°C° 0,1 mm 1 m/s 662 mmHg 84%

    5 Martie, Duminică

    Timp Temperatura Precipitaţii Vânt Presiune Umiditate
    00:00 +4°C° 0,1 mm 1 m/s 662 mmHg 84%
    01:00 +4°C° 0 mm 1 m/s 662 mmHg 84%
    02:00 +3°C° 0 mm 1 m/s 662 mmHg 83%
    03:00 +3°C° 0 mm 1 m/s 662 mmHg 83%
    04:00 +3°C° 0 mm 1 m/s 662 mmHg 83%
    05:00 +2°C° 0 mm 1 m/s 662 mmHg 82%
    06:00 +2°C° 0 mm 1 m/s 663 mmHg 81%
    07:00 +4°C° 0 mm 1 m/s 663 mmHg 75%
    08:00 +5°C° 0 mm 1 m/s 664 mmHg 69%
    09:00 +7°C° 0 mm 1 m/s 665 mmHg 63%
    10:00 +8°C° 0,1 mm 1 m/s 665 mmHg 61%
    11:00 +8°C° 0,1 mm 1 m/s 665 mmHg 59%
    12:00 +9°C° 0,1 mm 1 m/s 665 mmHg 57%
    13:00 +9°C° 0 mm 2 m/s 665 mmHg 56%
    14:00 +9°C° 0 mm 2 m/s 665 mmHg 56%
    15:00 +9°C° 0 mm 2 m/s 664 mmHg 56%
    16:00 +7°C° 0 mm 2 m/s 664 mmHg 63%
    17:00 +6°C° 0 mm 2 m/s 664 mmHg 70%
    18:00 +5°C° 0 mm 1 m/s 664 mmHg 77%
    19:00 +5°C° 0 mm 1 m/s 664 mmHg 79%
    20:00 +4°C° 0 mm 1 m/s 664 mmHg 81%
    21:00 +4°C° 0 mm 1 m/s 664 mmHg 83%
    22:00 +3°C° 0 mm 1 m/s 664 mmHg 83%
    23:00 +3°C° 0 mm 1 m/s 664 mmHg 83%
    Arată mai mult